Polar Endurance — WDG2085 — position and weather

sailwx.info

Track history (hours):
 
Tides and Currents Weather Stations Pressure Air Temp Water Temp Dewpoint Dewpoint Depression Visibility Wind Speed Wind Dir Waves Ship Positions

Polar Endurance

More information available from US FCC via Universal Licensing System and Coast Guard Vessel Documentation Center.

Last reported at 2014-Jul-31 08:32 UTC. Time now 2014-Aug-01 07:53 UTC.
Position N 58°15' W 136°04'.

Length 37 m; draft 5 m.

Type: Towing. MMSI: 303144000.

Date/timePositionNaut miles runAvg speedWind from/ knotsBaromVisibWave heightAir tempDewpointWater temp
2014-Jul-31 08:32N 58°15' W 136°04'8 7.8
2014-Jul-31 07:33N 58°18' W 135°50'10 9.0
2014-Jul-31 06:28N 58°15' W 135°33'  
2014-Jul-28 00:20N 51°27' W 128°07'7 8.4
2014-Jul-27 23:31N 51°23' W 127°58'16 8.2
2014-Jul-27 21:33N 51°08' W 127°48'8 8.5
2014-Jul-27 20:33N 51°02' W 127°38'8 8.4
2014-Jul-27 19:34N 50°57' W 127°28'8 8.1
2014-Jul-27 18:32N 50°52' W 127°17'9 9.0
2014-Jul-27 17:33N 50°47' W 127°05'18 9.1
2014-Jul-27 15:32N 50°36' W 126°43'9 9.2
2014-Jul-27 14:32N 50°30' W 126°31'1410.1
2014-Jul-27 13:09N 50°28' W 126°09'30 8.1
2014-Jul-27 09:29N 50°19' W 125°25'8 9.1
2014-Jul-27 08:33N 50°11' W 125°22'6 6.2
2014-Jul-27 07:32N 50°05' W 125°17'8 6.9
2014-Jul-27 06:25N 49°59' W 125°11'6 6.2
2014-Jul-27 05:24N 49°55' W 125°03'16 5.5
2014-Jul-27 02:33N 49°45' W 124°44'10 9.9
2014-Jul-27 01:33N 49°39' W 124°32'10 9.5
2014-Jul-27 00:33N 49°33' W 124°20'10 9.7
2014-Jul-26 23:33N 49°28' W 124°07'10 9.7
2014-Jul-26 22:33N 49°23' W 123°54'10 9.6
2014-Jul-26 21:33N 49°17' W 123°42'1010.0
2014-Jul-26 20:33N 49°11' W 123°31'10 9.8
2014-Jul-26 19:33N 49°04' W 123°21'9 9.1
2014-Jul-26 18:33N 48°58' W 123°10'8 8.5
2014-Jul-26 17:33N 48°53' W 123°00'8 8.3
2014-Jul-26 16:33N 48°47' W 122°51'8 7.9
2014-Jul-26 15:33N 48°41' W 122°43'7 6.7
2014-Jul-26 14:33N 48°35' W 122°45'7 7.2
2014-Jul-26 13:33N 48°28' W 122°44'26 8.0
2014-Jul-26 10:15N 48°02' W 122°37'5 8.7
2014-Jul-26 09:44N 47°58' W 122°34'2 8.9
2014-Jul-26 09:33N 47°57' W 122°32'1 9.3
2014-Jul-26 09:24N 47°56' W 122°30'8 9.2
2014-Jul-26 08:34N 47°49' W 122°27'015.1
2014-Jul-26 08:33N 47°49' W 122°27'9 9.1
2014-Jul-26 07:34N 47°40' W 122°27'5 4.9
2014-Jul-26 06:28N 47°35' W 122°22'0 0.1
2014-Jul-26 06:04N 47°35' W 122°22'0 0.3
2014-Jul-26 05:49N 47°35' W 122°22'0 0.1
2014-Jul-26 05:26N 47°35' W 122°22'0 0.0
2014-Jul-26 04:34N 47°35' W 122°22'0 0.0
2014-Jul-26 04:33N 47°35' W 122°22'0 0.1
2014-Jul-26 03:33N 47°35' W 122°22'0 0.0
2014-Jul-26 03:33N 47°35' W 122°22'1 0.6
2014-Jul-26 02:33N 47°35' W 122°21'0 0.0
2014-Jul-26 02:33N 47°35' W 122°21'0 0.2
2014-Jul-26 01:33N 47°35' W 122°21'0 0.0
2014-Jul-26 01:33N 47°35' W 122°21'0 0.0
2014-Jul-26 00:33N 47°35' W 122°21'0 0.0
2014-Jul-26 00:32N 47°35' W 122°21'0 0.0
2014-Jul-25 23:33N 47°35' W 122°21'0 0.0
2014-Jul-25 23:32N 47°35' W 122°21'0 0.0
2014-Jul-25 22:33N 47°35' W 122°21'0 0.1
2014-Jul-25 22:27N 47°35' W 122°21'1 0.8
2014-Jul-25 21:33N 47°36' W 122°22'0 9.4
2014-Jul-25 21:32N 47°36' W 122°22'1010.7
2014-Jul-25 20:33N 47°46' W 122°25'011.1
2014-Jul-25 20:31N 47°47' W 122°25'1212.4
2014-Jul-25 19:33N 47°58' W 122°18'4 3.5
2014-Jul-25 18:33N 47°59' W 122°13'  
2014-Jul-22 23:23N 47°59' W 122°13'7 9.0
2014-Jul-22 22:34N 47°54' W 122°21'513.5
2014-Jul-22 22:10N 47°49' W 122°24'813.5
2014-Jul-22 21:33N 47°41' W 122°26'113.4
2014-Jul-22 21:30N 47°40' W 122°27'6 6.0
2014-Jul-22 20:33N 47°35' W 122°22'0 0.1
2014-Jul-22 20:30N 47°35' W 122°22'1 0.8
2014-Jul-22 19:33N 47°36' W 122°23'0 5.3
2014-Jul-22 19:30N 47°36' W 122°23'8 8.3
2014-Jul-22 18:33N 47°43' W 122°28'110.3
2014-Jul-22 18:30N 47°44' W 122°27'9 9.9
2014-Jul-22 17:33N 47°53' W 122°30'9 9.0
2014-Jul-22 16:33N 48°00' W 122°38'16 7.8
2014-Jul-22 14:31N 48°14' W 122°49'1010.8
2014-Jul-22 13:32N 48°25' W 122°45'1212.4
2014-Jul-22 12:33N 48°37' W 122°45'9 9.5
2014-Jul-22 11:33N 48°46' W 122°50'1010.2
2014-Jul-22 10:33N 48°52' W 123°03'1010.0
2014-Jul-22 09:33N 48°58' W 123°14'9 9.3
2014-Jul-22 08:33N 49°04' W 123°25'9 8.6
2014-Jul-22 07:33N 49°11' W 123°34'9 8.7
2014-Jul-22 06:33N 49°17' W 123°42'9 8.7
2014-Jul-22 05:32N 49°23' W 123°53'8 8.6
2014-Jul-22 04:33N 49°27' W 124°04'9 8.7
2014-Jul-22 03:33N 49°32' W 124°15'9 8.9
2014-Jul-22 02:33N 49°36' W 124°27'8 8.4
2014-Jul-22 01:33N 49°42' W 124°37'8 8.3
2014-Jul-22 00:33N 49°47' W 124°47'9 8.8
2014-Jul-21 23:33N 49°52' W 124°58'9 8.6
2014-Jul-21 22:31N 49°58' W 125°09'11 8.9
2014-Jul-21 21:16N 50°07' W 125°19'5 6.7
2014-Jul-21 20:28N 50°12' W 125°22'1 4.4
2014-Jul-21 20:16N 50°13' W 125°22'3 4.2
2014-Jul-21 19:33N 50°16' W 125°23'41 4.5
2014-Jul-21 10:30N 50°30' W 126°24'6 5.6
2014-Jul-21 09:26N 50°30' W 126°33'  
Track history (hours):
 
Tides and Currents Weather Stations Pressure Air Temp Water Temp Dewpoint Dewpoint Depression Visibility Wind Speed Wind Dir Waves Ship Positions

Polar Endurance

More information available from US FCC via Universal Licensing System and Coast Guard Vessel Documentation Center.

Last reported at 2014-Jul-31 08:32 UTC. Time now 2014-Aug-01 07:53 UTC.
Position N 58°15' W 136°04'.

Length 37 m; draft 5 m.

Type: Towing. MMSI: 303144000.

Date/timePositionNaut miles runAvg speedWind from/ knotsBaromVisibWave heightAir tempDewpointWater temp
2014-Jul-31 08:32N 58°15' W 136°04'8 7.8
2014-Jul-31 07:33N 58°18' W 135°50'10 9.0
2014-Jul-31 06:28N 58°15' W 135°33'  
2014-Jul-28 00:20N 51°27' W 128°07'7 8.4
2014-Jul-27 23:31N 51°23' W 127°58'16 8.2
2014-Jul-27 21:33N 51°08' W 127°48'8 8.5
2014-Jul-27 20:33N 51°02' W 127°38'8 8.4
2014-Jul-27 19:34N 50°57' W 127°28'8 8.1
2014-Jul-27 18:32N 50°52' W 127°17'9 9.0
2014-Jul-27 17:33N 50°47' W 127°05'18 9.1
2014-Jul-27 15:32N 50°36' W 126°43'9 9.2
2014-Jul-27 14:32N 50°30' W 126°31'1410.1
2014-Jul-27 13:09N 50°28' W 126°09'30 8.1
2014-Jul-27 09:29N 50°19' W 125°25'8 9.1
2014-Jul-27 08:33N 50°11' W 125°22'6 6.2
2014-Jul-27 07:32N 50°05' W 125°17'8 6.9
2014-Jul-27 06:25N 49°59' W 125°11'6 6.2
2014-Jul-27 05:24N 49°55' W 125°03'16 5.5
2014-Jul-27 02:33N 49°45' W 124°44'10 9.9
2014-Jul-27 01:33N 49°39' W 124°32'10 9.5
2014-Jul-27 00:33N 49°33' W 124°20'10 9.7
2014-Jul-26 23:33N 49°28' W 124°07'10 9.7
2014-Jul-26 22:33N 49°23' W 123°54'10 9.6
2014-Jul-26 21:33N 49°17' W 123°42'1010.0
2014-Jul-26 20:33N 49°11' W 123°31'10 9.8
2014-Jul-26 19:33N 49°04' W 123°21'9 9.1
2014-Jul-26 18:33N 48°58' W 123°10'8 8.5
2014-Jul-26 17:33N 48°53' W 123°00'8 8.3
2014-Jul-26 16:33N 48°47' W 122°51'8 7.9
2014-Jul-26 15:33N 48°41' W 122°43'7 6.7
2014-Jul-26 14:33N 48°35' W 122°45'7 7.2
2014-Jul-26 13:33N 48°28' W 122°44'26 8.0
2014-Jul-26 10:15N 48°02' W 122°37'5 8.7
2014-Jul-26 09:44N 47°58' W 122°34'2 8.9
2014-Jul-26 09:33N 47°57' W 122°32'1 9.3
2014-Jul-26 09:24N 47°56' W 122°30'8 9.2
2014-Jul-26 08:34N 47°49' W 122°27'015.1
2014-Jul-26 08:33N 47°49' W 122°27'9 9.1
2014-Jul-26 07:34N 47°40' W 122°27'5 4.9
2014-Jul-26 06:28N 47°35' W 122°22'0 0.1
2014-Jul-26 06:04N 47°35' W 122°22'0 0.3
2014-Jul-26 05:49N 47°35' W 122°22'0 0.1
2014-Jul-26 05:26N 47°35' W 122°22'0 0.0
2014-Jul-26 04:34N 47°35' W 122°22'0 0.0
2014-Jul-26 04:33N 47°35' W 122°22'0 0.1
2014-Jul-26 03:33N 47°35' W 122°22'0 0.0
2014-Jul-26 03:33N 47°35' W 122°22'1 0.6
2014-Jul-26 02:33N 47°35' W 122°21'0 0.0
2014-Jul-26 02:33N 47°35' W 122°21'0 0.2
2014-Jul-26 01:33N 47°35' W 122°21'0 0.0
2014-Jul-26 01:33N 47°35' W 122°21'0 0.0
2014-Jul-26 00:33N 47°35' W 122°21'0 0.0
2014-Jul-26 00:32N 47°35' W 122°21'0 0.0
2014-Jul-25 23:33N 47°35' W 122°21'0 0.0
2014-Jul-25 23:32N 47°35' W 122°21'0 0.0
2014-Jul-25 22:33N 47°35' W 122°21'0 0.1
2014-Jul-25 22:27N 47°35' W 122°21'1 0.8
2014-Jul-25 21:33N 47°36' W 122°22'0 9.4
2014-Jul-25 21:32N 47°36' W 122°22'1010.7
2014-Jul-25 20:33N 47°46' W 122°25'011.1
2014-Jul-25 20:31N 47°47' W 122°25'1212.4
2014-Jul-25 19:33N 47°58' W 122°18'4 3.5
2014-Jul-25 18:33N 47°59' W 122°13'  
2014-Jul-22 23:23N 47°59' W 122°13'7 9.0
2014-Jul-22 22:34N 47°54' W 122°21'513.5
2014-Jul-22 22:10N 47°49' W 122°24'813.5
2014-Jul-22 21:33N 47°41' W 122°26'113.4
2014-Jul-22 21:30N 47°40' W 122°27'6 6.0
2014-Jul-22 20:33N 47°35' W 122°22'0 0.1
2014-Jul-22 20:30N 47°35' W 122°22'1 0.8
2014-Jul-22 19:33N 47°36' W 122°23'0 5.3
2014-Jul-22 19:30N 47°36' W 122°23'8 8.3
2014-Jul-22 18:33N 47°43' W 122°28'110.3
2014-Jul-22 18:30N 47°44' W 122°27'9 9.9
2014-Jul-22 17:33N 47°53' W 122°30'9 9.0
2014-Jul-22 16:33N 48°00' W 122°38'16 7.8
2014-Jul-22 14:31N 48°14' W 122°49'1010.8
2014-Jul-22 13:32N 48°25' W 122°45'1212.4
2014-Jul-22 12:33N 48°37' W 122°45'9 9.5
2014-Jul-22 11:33N 48°46' W 122°50'1010.2
2014-Jul-22 10:33N 48°52' W 123°03'1010.0
2014-Jul-22 09:33N 48°58' W 123°14'9 9.3
2014-Jul-22 08:33N 49°04' W 123°25'9 8.6
2014-Jul-22 07:33N 49°11' W 123°34'9 8.7
2014-Jul-22 06:33N 49°17' W 123°42'9 8.7
2014-Jul-22 05:32N 49°23' W 123°53'8 8.6
2014-Jul-22 04:33N 49°27' W 124°04'9 8.7
2014-Jul-22 03:33N 49°32' W 124°15'9 8.9
2014-Jul-22 02:33N 49°36' W 124°27'8 8.4
2014-Jul-22 01:33N 49°42' W 124°37'8 8.3
2014-Jul-22 00:33N 49°47' W 124°47'9 8.8
2014-Jul-21 23:33N 49°52' W 124°58'9 8.6
2014-Jul-21 22:31N 49°58' W 125°09'11 8.9
2014-Jul-21 21:16N 50°07' W 125°19'5 6.7
2014-Jul-21 20:28N 50°12' W 125°22'1 4.4
2014-Jul-21 20:16N 50°13' W 125°22'3 4.2
2014-Jul-21 19:33N 50°16' W 125°23'41 4.5
2014-Jul-21 10:30N 50°30' W 126°24'6 5.6
2014-Jul-21 09:26N 50°30' W 126°33'  

Dump ship's entire track history